Date,MW,Mvar
01/01/2018 00:15,0.4,-0.01
01/01/2018 00:30,0.43,-0.01
01/01/2018 00:45,0.41,-0.01
01/01/2018 01:00,0.39,-0.01
01/01/2018 01:15,0.38,-0.01
01/01/2018 01:30,0.34,-0.02
01/01/2018 01:45,0.33,-0.02
01/01/2018 02:00,0.31,-0.02
01/01/2018 02:15,0.3,-0.03
01/01/2018 02:30,0.29,-0.03
01/01/2018 02:45,0.28,-0.03
01/01/2018 03:00,0.26,-0.03
01/01/2018 03:15,0.26,-0.03
01/01/2018 03:30,0.27,-0.03
01/01/2018 03:45,0.26,-0.02
01/01/2018 04:00,0.3,0.01
01/01/2018 04:15,0.31,0.01
01/01/2018 04:30,0.29,0.01
01/01/2018 04:45,0.29,0.01
01/01/2018 05:00,0.29,0.01
01/01/2018 05:15,0.33,0.02
01/01/2018 05:30,0.36,0.04
01/01/2018 05:45,0.36,0.04
01/01/2018 06:00,0.37,0.04
01/01/2018 06:15,0.38,0.04
01/01/2018 06:30,0.38,0.04
01/01/2018 06:45,0.37,0.04
01/01/2018 07:00,0.38,0.04
01/01/2018 07:15,0.38,0.04
01/01/2018 07:30,0.36,0.05
01/01/2018 07:45,0.36,0.05
01/01/2018 08:00,0.36,0.04
01/01/2018 08:15,0.3,0.03
01/01/2018 08:30,0.3,0.03
01/01/2018 08:45,0.31,0.03
01/01/2018 09:00,0.33,0.04
01/01/2018 09:15,0.32,0.03
01/01/2018 09:30,0.28,0.02
01/01/2018 09:45,0.29,0.01
01/01/2018 10:00,0.28,0.01
01/01/2018 10:15,0.26,0.01
01/01/2018 10:30,0.24,0
01/01/2018 10:45,0.23,-0.01
01/01/2018 11:00,0.23,-0.01
01/01/2018 11:15,0.22,-0.01
01/01/2018 11:30,0.2,-0.02
01/01/2018 11:45,0.21,-0.02
01/01/2018 12:00,0.2,-0.02
01/01/2018 12:15,0.21,-0.01
01/01/2018 12:30,0.21,-0.01
01/01/2018 12:45,0.21,0
01/01/2018 13:00,0.21,0.01
01/01/2018 13:15,0.22,0.01
01/01/2018 13:30,0.22,0.01
01/01/2018 13:45,0.21,0
01/01/2018 14:00,0.21,0
01/01/2018 14:15,0.21,0.01
01/01/2018 14:30,0.24,0.02
01/01/2018 14:45,0.25,0.02
01/01/2018 15:00,0.25,0.02
01/01/2018 15:15,0.25,0.02
01/01/2018 15:30,0.26,0.01
01/01/2018 15:45,0.26,0.01
01/01/2018 16:00,0.27,0.02
01/01/2018 16:15,0.27,0.03
01/01/2018 16:30,0.28,0.03
01/01/2018 16:45,0.29,0.03
01/01/2018 17:00,0.29,0.03
01/01/2018 17:15,0.31,0.04
01/01/2018 17:30,0.32,0.05
01/01/2018 17:45,0.33,0.05
01/01/2018 18:00,0.31,0.04
01/01/2018 18:15,0.31,0.04
01/01/2018 18:30,0.32,0.03
01/01/2018 18:45,0.32,0.03
01/01/2018 19:00,0.3,0.02
01/01/2018 19:15,0.3,0.02
01/01/2018 19:30,0.32,0.02
01/01/2018 19:45,0.3,0.01
01/01/2018 20:00,0.27,0
01/01/2018 20:15,0.25,-0.01
01/01/2018 20:30,0.25,-0.01
01/01/2018 20:45,0.25,-0.01
01/01/2018 21:00,0.26,-0.01
01/01/2018 21:15,0.25,-0.01
01/01/2018 21:30,0.26,-0.01
01/01/2018 21:45,0.28,-0.01
01/01/2018 22:00,0.27,-0.01
01/01/2018 22:15,0.27,-0.01
01/01/2018 22:30,0.27,-0.01
01/01/2018 22:45,0.27,-0.01
01/01/2018 23:00,0.27,-0.01
01/01/2018 23:15,0.26,-0.02
01/01/2018 23:30,0.27,-0.02
01/01/2018 23:45,0.31,-0.02
02/01/2018 00:00,0.37,-0.02
02/01/2018 00:15,0.44,-0.01
02/01/2018 00:30,0.47,-0.01
02/01/2018 00:45,0.45,-0.02
02/01/2018 01:00,0.42,-0.02
02/01/2018 01:15,0.41,-0.01
02/01/2018 01:30,0.39,-0.02
02/01/2018 01:45,0.39,-0.02
02/01/2018 02:00,0.36,-0.02
02/01/2018 02:15,0.35,-0.02
02/01/2018 02:30,0.36,-0.02
02/01/2018 02:45,0.34,-0.02
02/01/2018 03:00,0.33,-0.02
02/01/2018 03:15,0.3,-0.03
02/01/2018 03:30,0.3,-0.03
02/01/2018 03:45,0.31,-0.02
02/01/2018 04:00,0.32,0
02/01/2018 04:15,0.34,0.01
02/01/2018 04:30,0.33,0.01
02/01/2018 04:45,0.29,0.01
02/01/2018 05:00,0.3,0.01
02/01/2018 05:15,0.32,0.02
02/01/2018 05:30,0.34,0.03
02/01/2018 05:45,0.34,0.03
02/01/2018 06:00,0.39,0.04
02/01/2018 06:15,0.36,0.05
02/01/2018 06:30,0.36,0.05
02/01/2018 06:45,0.35,0.04
02/01/2018 07:00,0.34,0.05
02/01/2018 07:15,0.36,0.05
02/01/2018 07:30,0.36,0.05
02/01/2018 07:45,0.36,0.05
02/01/2018 08:00,0.37,0.04
02/01/2018 08:15,0.31,0.03
02/01/2018 08:30,0.31,0.03
02/01/2018 08:45,0.32,0.04
02/01/2018 09:00,0.32,0.05
02/01/2018 09:15,0.31,0.04
02/01/2018 09:30,0.3,0.04
02/01/2018 09:45,0.27,0.02
02/01/2018 10:00,0.25,0.01
02/01/2018 10:15,0.23,0.02
02/01/2018 10:30,0.23,0.01
02/01/2018 10:45,0.24,0.01
02/01/2018 11:00,0.23,0.01
02/01/2018 11:15,0.22,0.01
02/01/2018 11:30,0.21,0.01
02/01/2018 11:45,0.21,0
02/01/2018 12:00,0.2,0
02/01/2018 12:15,0.2,0.01
02/01/2018 12:30,0.2,0.01
02/01/2018 12:45,0.21,0.01
02/01/2018 13:00,0.21,0.01
02/01/2018 13:15,0.19,0.01
02/01/2018 13:30,0.2,0.01
02/01/2018 13:45,0.2,0.01
02/01/2018 14:00,0.2,0.02
02/01/2018 14:15,0.2,0.02
02/01/2018 14:30,0.23,0.02
02/01/2018 14:45,0.26,0.03
02/01/2018 15:00,0.27,0.04
02/01/2018 15:15,0.28,0.04
02/01/2018 15:30,0.28,0.03
02/01/2018 15:45,0.27,0.04
02/01/2018 16:00,0.27,0.04
02/01/2018 16:15,0.27,0.03
02/01/2018 16:30,0.27,0.03
02/01/2018 16:45,0.28,0.04
02/01/2018 17:00,0.28,0.05
02/01/2018 17:15,0.29,0.05
02/01/2018 17:30,0.29,0.05
02/01/2018 17:45,0.3,0.05
02/01/2018 18:00,0.3,0.05
02/01/2018 18:15,0.32,0.05
02/01/2018 18:30,0.31,0.03
02/01/2018 18:45,0.3,0.04
02/01/2018 19:00,0.31,0.04
02/01/2018 19:15,0.3,0.04
02/01/2018 19:30,0.28,0.02
02/01/2018 19:45,0.27,0.02
02/01/2018 20:00,0.27,0.02
02/01/2018 20:15,0.26,0.01
02/01/2018 20:30,0.25,0.01
02/01/2018 20:45,0.24,0.01
02/01/2018 21:00,0.24,0.01
02/01/2018 21:15,0.23,0
02/01/2018 21:30,0.26,0.01
02/01/2018 21:45,0.27,0
02/01/2018 22:00,0.27,0
02/01/2018 22:15,0.27,0
02/01/2018 22:30,0.27,-0.01
02/01/2018 22:45,0.27,0
02/01/2018 23:00,0.26,0
02/01/2018 23:15,0.27,0
02/01/2018 23:30,0.29,-0.01
02/01/2018 23:45,0.31,-0.01
03/01/2018 00:00,0.35,-0.01
03/01/2018 00:15,0.43,-0.01
03/01/2018 00:30,0.45,-0.01
03/01/2018 00:45,0.45,0
03/01/2018 01:00,0.44,0
03/01/2018 01:15,0.42,0
03/01/2018 01:30,0.39,0
03/01/2018 01:45,0.38,-0.01
03/01/2018 02:00,0.37,-0.01
03/01/2018 02:15,0.35,-0.01
03/01/2018 02:30,0.33,-0.01
03/01/2018 02:45,0.31,-0.01
03/01/2018 03:00,0.3,-0.01
03/01/2018 03:15,0.3,-0.01
03/01/2018 03:30,0.29,-0.01
03/01/2018 03:45,0.29,-0.01
03/01/2018 04:00,0.32,0.01
03/01/2018 04:15,0.33,0.03
03/01/2018 04:30,0.32,0.03
03/01/2018 04:45,0.32,0.03
03/01/2018 05:00,0.31,0.02
03/01/2018 05:15,0.35,0.03
03/01/2018 05:30,0.36,0.04
03/01/2018 05:45,0.37,0.04
03/01/2018 06:00,0.38,0.05
03/01/2018 06:15,0.38,0.05
03/01/2018 06:30,0.37,0.06
03/01/2018 06:45,0.37,0.06
03/01/2018 07:00,0.35,0.05
03/01/2018 07:15,0.35,0.06
03/01/2018 07:30,0.35,0.06
03/01/2018 07:45,0.35,0.06
03/01/2018 08:00,0.35,0.05
03/01/2018 08:15,0.3,0.05
03/01/2018 08:30,0.3,0.04
03/01/2018 08:45,0.29,0.04
03/01/2018 09:00,0.33,0.06
03/01/2018 09:15,0.34,0.06
03/01/2018 09:30,0.32,0.05
03/01/2018 09:45,0.32,0.05
03/01/2018 10:00,0.31,0.05
03/01/2018 10:15,0.3,0.04
03/01/2018 10:30,0.28,0.04
03/01/2018 10:45,0.28,0.04
03/01/2018 11:00,0.27,0.03
03/01/2018 11:15,0.27,0.03
03/01/2018 11:30,0.27,0.03
03/01/2018 11:45,0.27,0.03
03/01/2018 12:00,0.27,0.03
03/01/2018 12:15,0.27,0.04
03/01/2018 12:30,0.26,0.03
03/01/2018 12:45,0.27,0.04
03/01/2018 13:00,0.26,0.04
03/01/2018 13:15,0.27,0.05
03/01/2018 13:30,0.29,0.06
03/01/2018 13:45,0.28,0.05
03/01/2018 14:00,0.27,0.05
03/01/2018 14:15,0.28,0.06
03/01/2018 14:30,0.28,0.06
03/01/2018 14:45,0.3,0.07
03/01/2018 15:00,0.24,0.03
03/01/2018 15:15,0.28,0.05
03/01/2018 15:30,0.27,0.04
03/01/2018 15:45,0.27,0.04
03/01/2018 16:00,0.29,0.05
03/01/2018 16:15,0.31,0.06
03/01/2018 16:30,0.31,0.06
03/01/2018 16:45,0.3,0.05
03/01/2018 17:00,0.3,0.05
03/01/2018 17:15,0.32,0.06
03/01/2018 17:30,0.32,0.07
03/01/2018 17:45,0.32,0.07
03/01/2018 18:00,0.32,0.06
03/01/2018 18:15,0.31,0.06
03/01/2018 18:30,0.33,0.06
03/01/2018 18:45,0.33,0.06
03/01/2018 19:00,0.34,0.05
03/01/2018 19:15,0.3,0.03
03/01/2018 19:30,0.28,0.02
03/01/2018 19:45,0.27,0.02
03/01/2018 20:00,0.26,0.01
03/01/2018 20:15,0.25,0.01
03/01/2018 20:30,0.25,0.01
03/01/2018 20:45,0.26,0.01
03/01/2018 21:00,0.26,0.01
03/01/2018 21:15,0.26,0.01
03/01/2018 21:30,0.27,0.01
03/01/2018 21:45,0.29,0.01
03/01/2018 22:00,0.29,0.01
03/01/2018 22:15,0.29,0.01
03/01/2018 22:30,0.3,0.02
03/01/2018 22:45,0.29,0
03/01/2018 23:00,0.29,0
03/01/2018 23:15,0.29,0
03/01/2018 23:30,0.3,-0.01
03/01/2018 23:45,0.34,-0.01
04/01/2018 00:00,0.35,-0.01
04/01/2018 00:15,0.41,-0.01
04/01/2018 00:30,0.43,-0.01
04/01/2018 00:45,0.42,-0.01
04/01/2018 01:00,0.4,-0.01
04/01/2018 01:15,0.4,0
04/01/2018 01:30,0.36,-0.01
04/01/2018 01:45,0.34,-0.01
04/01/2018 02:00,0.34,-0.01
04/01/2018 02:15,0.33,-0.01
04/01/2018 02:30,0.31,-0.01
04/01/2018 02:45,0.28,-0.01
04/01/2018 03:00,0.28,-0.01
04/01/2018 03:15,0.27,-0.01
04/01/2018 03:30,0.27,-0.01
04/01/2018 03:45,0.29,0
04/01/2018 04:00,0.34,0.02
04/01/2018 04:15,0.31,0.03
04/01/2018 04:30,0.31,0.03
04/01/2018 04:45,0.32,0.03
04/01/2018 05:00,0.34,0.04
04/01/2018 05:15,0.38,0.05
04/01/2018 05:30,0.37,0.05
04/01/2018 05:45,0.38,0.05
04/01/2018 06:00,0.38,0.06
04/01/2018 06:15,0.39,0.07
04/01/2018 06:30,0.37,0.07
04/01/2018 06:45,0.41,0.08
04/01/2018 07:00,0.41,0.08
04/01/2018 07:15,0.4,0.08
04/01/2018 07:30,0.42,0.07
04/01/2018 07:45,0.38,0.06
04/01/2018 08:00,0.37,0.06
04/01/2018 08:15,0.33,0.06
04/01/2018 08:30,0.3,0.04
04/01/2018 08:45,0.29,0.04
04/01/2018 09:00,0.28,0.03
04/01/2018 09:15,0.26,0.02
04/01/2018 09:30,0.26,0.02
04/01/2018 09:45,0.24,0.02
04/01/2018 10:00,0.23,0.01
04/01/2018 10:15,0.21,0.01
04/01/2018 10:30,0.2,0
04/01/2018 10:45,0.19,0
04/01/2018 11:00,0.2,0.01
04/01/2018 11:15,0.2,0.01
04/01/2018 11:30,0.19,0.01
04/01/2018 11:45,0.2,0.01
04/01/2018 12:00,0.21,0.01
04/01/2018 12:15,0.21,0.02
04/01/2018 12:30,0.2,0.01
04/01/2018 12:45,0.2,0.01
04/01/2018 13:00,0.19,0.01
04/01/2018 13:15,0.22,0.03
04/01/2018 13:30,0.21,0.03
04/01/2018 13:45,0.21,0.02
04/01/2018 14:00,0.21,0.02
04/01/2018 14:15,0.21,0.02
04/01/2018 14:30,0.25,0.04
04/01/2018 14:45,0.27,0.04
04/01/2018 15:00,0.28,0.05
04/01/2018 15:15,0.29,0.05
04/01/2018 15:30,0.3,0.06
04/01/2018 15:45,0.29,0.05
04/01/2018 16:00,0.29,0.05
04/01/2018 16:15,0.28,0.05
04/01/2018 16:30,0.29,0.06
04/01/2018 16:45,0.29,0.05
04/01/2018 17:00,0.31,0.06
04/01/2018 17:15,0.29,0.06
04/01/2018 17:30,0.35,0.07
04/01/2018 17:45,0.31,0.04
04/01/2018 18:00,0.32,0.05
04/01/2018 18:15,0.3,0.03
04/01/2018 18:30,0.3,0.03
04/01/2018 18:45,0.3,0.03
04/01/2018 19:00,0.31,0.03
04/01/2018 19:15,0.32,0.03
04/01/2018 19:30,0.3,0.02
04/01/2018 19:45,0.26,0.01
04/01/2018 20:00,0.24,0
04/01/2018 20:15,0.31,0.03
04/01/2018 20:30,0.3,0.03
04/01/2018 20:45,0.3,0.03
04/01/2018 21:00,0.29,0.02
04/01/2018 21:15,0.29,0.02
04/01/2018 21:30,0.3,0.03
04/01/2018 21:45,0.32,0.03
04/01/2018 22:00,0.32,0.03
04/01/2018 22:15,0.32,0.03
04/01/2018 22:30,0.32,0.03
04/01/2018 22:45,0.31,0.03
04/01/2018 23:00,0.31,0.03
04/01/2018 23:15,0.33,0.03
04/01/2018 23:30,0.36,0.03
04/01/2018 23:45,0.38,0.03
05/01/2018 00:00,0.41,0.02
05/01/2018 00:15,0.47,0.03
05/01/2018 00:30,0.49,0.02
05/01/2018 00:45,0.48,0.02
05/01/2018 01:00,0.46,0.02
05/01/2018 01:15,0.45,0.02
05/01/2018 01:30,0.42,0.02
05/01/2018 01:45,0.4,0.02
05/01/2018 02:00,0.39,0.02
05/01/2018 02:15,0.39,0.02
05/01/2018 02:30,0.39,0.02
05/01/2018 02:45,0.36,0.02
05/01/2018 03:00,0.34,0.02
05/01/2018 03:15,0.34,0.01
05/01/2018 03:30,0.34,0.02
05/01/2018 03:45,0.34,0.02
05/01/2018 04:00,0.35,0.02
05/01/2018 04:15,0.35,0.04
05/01/2018 04:30,0.35,0.06
05/01/2018 04:45,0.35,0.06
05/01/2018 05:00,0.34,0.05
05/01/2018 05:15,0.35,0.05
05/01/2018 05:30,0.37,0.05
05/01/2018 05:45,0.38,0.06
05/01/2018 06:00,0.41,0.06
05/01/2018 06:15,0.4,0.07
05/01/2018 06:30,0.43,0.08
05/01/2018 06:45,0.43,0.08
05/01/2018 07:00,0.4,0.06
05/01/2018 07:15,0.41,0.06
05/01/2018 07:30,0.39,0.06
05/01/2018 07:45,0.39,0.05
05/01/2018 08:00,0.4,0.05
05/01/2018 08:15,0.33,0.04
05/01/2018 08:30,0.32,0.03
05/01/2018 08:45,0.32,0.03
05/01/2018 09:00,0.33,0.04
05/01/2018 09:15,0.33,0.04
05/01/2018 09:30,0.3,0.03
05/01/2018 09:45,0.27,0.01
05/01/2018 10:00,0.27,0.02
05/01/2018 10:15,0.25,0.01
05/01/2018 10:30,0.23,0
05/01/2018 10:45,0.23,0
05/01/2018 11:00,0.22,0
05/01/2018 11:15,0.24,0.01
05/01/2018 11:30,0.21,0
05/01/2018 11:45,0.22,0.01
05/01/2018 12:00,0.23,0.01
05/01/2018 12:15,0.22,0
05/01/2018 12:30,0.23,0.01
05/01/2018 12:45,0.23,0.01
05/01/2018 13:00,0.23,0
05/01/2018 13:15,0.23,0
05/01/2018 13:30,0.24,0.01
05/01/2018 13:45,0.24,0.01
05/01/2018 14:00,0.24,0.01
05/01/2018 14:15,0.33,0.08
05/01/2018 14:30,0.45,0.11
05/01/2018 14:45,0.41,0.07
05/01/2018 15:00,0.78,0.18
05/01/2018 15:15,0.74,0.15
05/01/2018 15:30,1.04,0.22
05/01/2018 15:45,1.06,0.24
05/01/2018 16:00,1.21,0.3
05/01/2018 16:15,1.16,0.28
05/01/2018 16:30,0.93,0.24
05/01/2018 16:45,1.24,0.33
05/01/2018 17:00,1.14,0.31
05/01/2018 17:15,1.27,0.31
05/01/2018 17:30,1.26,0.3
05/01/2018 17:45,1.29,0.32
05/01/2018 18:00,0.86,0.18
05/01/2018 18:15,0.36,0.01
05/01/2018 18:30,0.36,0.04
05/01/2018 18:45,0.37,0.04
05/01/2018 19:00,0.36,0.04
05/01/2018 19:15,0.34,0.03
05/01/2018 19:30,0.33,0.03
05/01/2018 19:45,0.33,0.02
05/01/2018 20:00,0.32,0.01
05/01/2018 20:15,0.31,0.01
05/01/2018 20:30,0.3,0
05/01/2018 20:45,0.29,0
05/01/2018 21:00,0.29,0
05/01/2018 21:15,0.27,0
05/01/2018 21:30,0.28,0.01
05/01/2018 21:45,0.29,0
05/01/2018 22:00,0.29,0
05/01/2018 22:15,0.29,0
05/01/2018 22:30,0.29,0
05/01/2018 22:45,0.29,-0.01
05/01/2018 23:00,0.29,0
05/01/2018 23:15,0.29,-0.01
05/01/2018 23:30,0.33,0
05/01/2018 23:45,0.34,-0.01
06/01/2018 00:00,0.37,-0.01
06/01/2018 00:15,0.43,-0.02
06/01/2018 00:30,0.45,-0.02
06/01/2018 00:45,0.45,-0.02
06/01/2018 01:00,0.43,-0.02
06/01/2018 01:15,0.4,-0.02
06/01/2018 01:30,0.39,-0.02
06/01/2018 01:45,0.37,-0.02
06/01/2018 02:00,0.36,-0.02
06/01/2018 02:15,0.35,-0.02
06/01/2018 02:30,0.32,-0.02
06/01/2018 02:45,0.31,-0.02
06/01/2018 03:00,0.31,-0.02
06/01/2018 03:15,0.3,-0.02
06/01/2018 03:30,0.31,-0.02
06/01/2018 03:45,0.29,-0.02
06/01/2018 04:00,0.3,0
06/01/2018 04:15,0.31,0.02
06/01/2018 04:30,0.31,0.02
06/01/2018 04:45,0.3,0.01
06/01/2018 05:00,0.33,0.01
06/01/2018 05:15,0.37,0.02
06/01/2018 05:30,0.39,0.03
06/01/2018 05:45,0.41,0.04
06/01/2018 06:00,0.4,0.05
06/01/2018 06:15,0.4,0.06
06/01/2018 06:30,0.38,0.05
06/01/2018 06:45,0.37,0.05
06/01/2018 07:00,0.4,0.06
06/01/2018 07:15,0.42,0.07
06/01/2018 07:30,0.4,0.06
06/01/2018 07:45,0.39,0.05
06/01/2018 08:00,0.39,0.05
06/01/2018 08:15,0.39,0.05
06/01/2018 08:30,0.38,0.05
06/01/2018 08:45,0.38,0.05
06/01/2018 09:00,0.39,0.05
06/01/2018 09:15,0.35,0.04
06/01/2018 09:30,0.32,0.03
06/01/2018 09:45,0.3,0.02
06/01/2018 10:00,0.3,0.01
06/01/2018 10:15,0.31,0.02
06/01/2018 10:30,0.3,0.01
06/01/2018 10:45,0.3,0.01
06/01/2018 11:00,0.3,0.01
06/01/2018 11:15,0.3,0.01
06/01/2018 11:30,0.29,0.01
06/01/2018 11:45,0.29,0.01
06/01/2018 12:00,0.3,0.01
06/01/2018 12:15,0.3,0.02
06/01/2018 12:30,0.3,0.02
06/01/2018 12:45,0.3,0.02
06/01/2018 13:00,0.3,0.02
06/01/2018 13:15,0.29,0.01
06/01/2018 13:30,0.28,0.01
06/01/2018 13:45,0.29,0.01
06/01/2018 14:00,0.29,0.01
06/01/2018 14:15,0.31,0.02
06/01/2018 14:30,0.32,0.02
06/01/2018 14:45,0.33,0.03
06/01/2018 15:00,0.35,0.03
06/01/2018 15:15,0.34,0.03
06/01/2018 15:30,0.34,0.03
06/01/2018 15:45,0.35,0.03
06/01/2018 16:00,0.34,0.03
06/01/2018 16:15,0.36,0.04
06/01/2018 16:30,0.37,0.05
06/01/2018 16:45,0.4,0.06
06/01/2018 17:00,0.41,0.07
06/01/2018 17:15,0.41,0.07
06/01/2018 17:30,0.41,0.07
06/01/2018 17:45,0.43,0.07
06/01/2018 18:00,0.43,0.08
06/01/2018 18:15,0.43,0.08
06/01/2018 18:30,0.45,0.09
06/01/2018 18:45,0.46,0.09
06/01/2018 19:00,0.44,0.08
06/01/2018 19:15,0.4,0.07
06/01/2018 19:30,0.39,0.05
06/01/2018 19:45,0.36,0.03
06/01/2018 20:00,0.36,0.02
06/01/2018 20:15,0.34,0.02
06/01/2018 20:30,0.33,0.02
06/01/2018 20:45,0.32,0.02
06/01/2018 21:00,0.31,0
06/01/2018 21:15,0.3,0.01
06/01/2018 21:30,0.3,0
06/01/2018 21:45,0.32,0
06/01/2018 22:00,0.33,0.01
06/01/2018 22:15,0.31,0
06/01/2018 22:30,0.31,0
06/01/2018 22:45,0.3,0
06/01/2018 23:00,0.29,0
06/01/2018 23:15,0.3,0
06/01/2018 23:30,0.32,0
06/01/2018 23:45,0.34,0
07/01/2018 00:00,0.36,-0.01
07/01/2018 00:15,0.39,0
07/01/2018 00:30,0.41,0
07/01/2018 00:45,0.41,0
07/01/2018 01:00,0.4,0
07/01/2018 01:15,0.38,0
07/01/2018 01:30,0.37,-0.01
07/01/2018 01:45,0.35,0
07/01/2018 02:00,0.33,-0.01
07/01/2018 02:15,0.33,0
07/01/2018 02:30,0.33,-0.01
07/01/2018 02:45,0.31,-0.01
07/01/2018 03:00,0.31,0
07/01/2018 03:15,0.29,-0.01
07/01/2018 03:30,0.29,0
07/01/2018 03:45,0.29,0
07/01/2018 04:00,0.31,0.01
07/01/2018 04:15,0.32,0.02
07/01/2018 04:30,0.32,0.03
07/01/2018 04:45,0.32,0.03
07/01/2018 05:00,0.32,0.02
07/01/2018 05:15,0.34,0.03
07/01/2018 05:30,0.35,0.03
07/01/2018 05:45,0.37,0.04
07/01/2018 06:00,0.41,0.05
07/01/2018 06:15,0.44,0.06
07/01/2018 06:30,0.45,0.07
07/01/2018 06:45,0.43,0.07
07/01/2018 07:00,0.46,0.07
07/01/2018 07:15,0.47,0.1
07/01/2018 07:30,0.48,0.1
07/01/2018 07:45,0.56,0.12
07/01/2018 08:00,1.01,0.26
07/01/2018 08:15,1.34,0.38
07/01/2018 08:30,1.31,0.37
07/01/2018 08:45,1.2,0.33
07/01/2018 09:00,1.16,0.33
07/01/2018 09:15,1.33,0.38
07/01/2018 09:30,0.95,0.24
07/01/2018 09:45,1.24,0.34
07/01/2018 10:00,1.23,0.32
07/01/2018 10:15,1.15,0.3
07/01/2018 10:30,1.19,0.33
07/01/2018 10:45,1.12,0.32
07/01/2018 11:00,1.26,0.37
07/01/2018 11:15,1.26,0.37
07/01/2018 11:30,1.28,0.34
07/01/2018 11:45,1.2,0.29
07/01/2018 12:00,0.96,0.22
07/01/2018 12:15,1.05,0.24
07/01/2018 12:30,0.93,0.2
07/01/2018 12:45,1,0.24
07/01/2018 13:00,0.33,-0.01
07/01/2018 13:15,0.23,0.02
07/01/2018 13:30,0.67,0.17
07/01/2018 13:45,1.2,0.33
07/01/2018 14:00,1.21,0.33
07/01/2018 14:15,1.29,0.37
07/01/2018 14:30,1.25,0.36
07/01/2018 14:45,1.25,0.35
07/01/2018 15:00,1.29,0.37
07/01/2018 15:15,1.32,0.39
07/01/2018 15:30,1.33,0.38
07/01/2018 15:45,1.15,0.33
07/01/2018 16:00,1.37,0.35
07/01/2018 16:15,1.19,0.32
07/01/2018 16:30,1.02,0.25
07/01/2018 16:45,1.15,0.29
07/01/2018 17:00,0.46,0.05
07/01/2018 17:15,0.31,0.04
07/01/2018 17:30,0.29,0.04
07/01/2018 17:45,0.29,0.03
07/01/2018 18:00,0.31,0.04
07/01/2018 18:15,0.32,0.04
07/01/2018 18:30,0.33,0.03
07/01/2018 18:45,0.35,0.04
07/01/2018 19:00,0.34,0.03
07/01/2018 19:15,0.35,0.04
07/01/2018 19:30,0.35,0.04
07/01/2018 19:45,0.34,0.04
07/01/2018 20:00,0.32,0.02
07/01/2018 20:15,0.33,0.02
07/01/2018 20:30,0.34,0.02
07/01/2018 20:45,0.32,0.01
07/01/2018 21:00,0.32,0.01
07/01/2018 21:15,0.32,0.01
07/01/2018 21:30,0.32,0.01
07/01/2018 21:45,0.35,0.01
07/01/2018 22:00,0.34,0.01
07/01/2018 22:15,0.34,0.01
07/01/2018 22:30,0.33,0.01
07/01/2018 22:45,0.32,0
07/01/2018 23:00,0.31,0.01
07/01/2018 23:15,0.32,0.01
07/01/2018 23:30,0.33,0
07/01/2018 23:45,0.36,0
08/01/2018 00:00,0.41,0
08/01/2018 00:15,0.41,0
08/01/2018 00:30,0.41,-0.01
08/01/2018 00:45,0.41,-0.01
08/01/2018 01:00,0.37,-0.01
08/01/2018 01:15,0.37,-0.01
08/01/2018 01:30,0.35,-0.01
08/01/2018 01:45,0.33,-0.01
08/01/2018 02:00,0.32,-0.02
08/01/2018 02:15,0.32,-0.01
08/01/2018 02:30,0.34,-0.01
08/01/2018 02:45,0.3,-0.01
08/01/2018 03:00,0.29,0
08/01/2018 03:15,0.28,-0.01
08/01/2018 03:30,0.28,-0.01
08/01/2018 03:45,0.27,-0.01
08/01/2018 04:00,0.3,0.01
08/01/2018 04:15,0.32,0.02
08/01/2018 04:30,0.32,0.02
08/01/2018 04:45,0.31,0.02
08/01/2018 05:00,0.32,0.03
08/01/2018 05:15,0.35,0.03
08/01/2018 05:30,0.36,0.04
08/01/2018 05:45,0.38,0.05
08/01/2018 06:00,0.41,0.05
08/01/2018 06:15,0.46,0.07
08/01/2018 06:30,0.43,0.08
08/01/2018 06:45,0.44,0.07
08/01/2018 07:00,0.46,0.09
08/01/2018 07:15,1.08,0.32
08/01/2018 07:30,1.39,0.39
08/01/2018 07:45,1.36,0.37
08/01/2018 08:00,1.35,0.36
08/01/2018 08:15,1.37,0.39
08/01/2018 08:30,1.33,0.38
08/01/2018 08:45,1.25,0.36
08/01/2018 09:00,1.22,0.36
08/01/2018 09:15,1.18,0.35
08/01/2018 09:30,1.24,0.36
08/01/2018 09:45,1.07,0.29
08/01/2018 10:00,1.12,0.27
08/01/2018 10:15,1.09,0.25
08/01/2018 10:30,0.53,0.06
08/01/2018 10:45,0.19,-0.07
08/01/2018 11:00,0.49,0.08
08/01/2018 11:15,1.15,0.29
08/01/2018 11:30,1.3,0.36
08/01/2018 11:45,0.99,0.28
08/01/2018 12:00,1.34,0.38
08/01/2018 12:15,1.11,0.31
08/01/2018 12:30,1.31,0.38
08/01/2018 12:45,0.85,0.21
08/01/2018 13:00,1.19,0.32
08/01/2018 13:15,1.02,0.26
08/01/2018 13:30,1.01,0.27
08/01/2018 13:45,1.22,0.34
08/01/2018 14:00,1.23,0.38
08/01/2018 14:15,1.33,0.44
08/01/2018 14:30,1.3,0.4
08/01/2018 14:45,1.4,0.43
08/01/2018 15:00,1.33,0.41
08/01/2018 15:15,1.3,0.39
08/01/2018 15:30,1.05,0.31
08/01/2018 15:45,1.27,0.37
08/01/2018 16:00,0.42,0.07
08/01/2018 16:15,0.37,0.09
08/01/2018 16:30,0.33,0.07
08/01/2018 16:45,0.35,0.08
08/01/2018 17:00,1.06,0.31
08/01/2018 17:15,0.99,0.27
08/01/2018 17:30,1.22,0.3
08/01/2018 17:45,1.32,0.35
08/01/2018 18:00,1.28,0.34
08/01/2018 18:15,1.21,0.32
08/01/2018 18:30,1.26,0.33
08/01/2018 18:45,1.32,0.33
08/01/2018 19:00,1.3,0.35
08/01/2018 19:15,1.28,0.33
08/01/2018 19:30,1.15,0.29
08/01/2018 19:45,0.7,0.12
08/01/2018 20:00,0.34,-0.01
08/01/2018 20:15,0.79,0.22
08/01/2018 20:30,1.32,0.38
08/01/2018 20:45,1.3,0.36
08/01/2018 21:00,1.13,0.3
08/01/2018 21:15,1.39,0.38
08/01/2018 21:30,1.3,0.35
08/01/2018 21:45,1.31,0.35
08/01/2018 22:00,1.1,0.28
08/01/2018 22:15,0.35,-0.01
08/01/2018 22:30,0.33,0.03
08/01/2018 22:45,0.33,0.02
08/01/2018 23:00,0.32,0.01
08/01/2018 23:15,0.31,0.01
08/01/2018 23:30,0.32,0.01
08/01/2018 23:45,0.35,0.01
09/01/2018 00:00,0.4,0
09/01/2018 00:15,0.46,0
09/01/2018 00:30,0.48,0
09/01/2018 00:45,0.47,0
09/01/2018 01:00,0.44,0
09/01/2018 01:15,0.41,0
09/01/2018 01:30,0.39,0
09/01/2018 01:45,0.38,0
09/01/2018 02:00,0.37,0
09/01/2018 02:15,0.35,0
09/01/2018 02:30,0.33,0
09/01/2018 02:45,0.32,0
09/01/2018 03:00,0.33,0
09/01/2018 03:15,0.31,0
09/01/2018 03:30,0.3,-0.01
09/01/2018 03:45,0.32,0
09/01/2018 04:00,0.32,0.01
09/01/2018 04:15,0.33,0.03
09/01/2018 04:30,0.34,0.03
09/01/2018 04:45,0.33,0.04
09/01/2018 05:00,0.34,0.04
09/01/2018 05:15,0.35,0.04
09/01/2018 05:30,0.36,0.04
09/01/2018 05:45,0.4,0.05
09/01/2018 06:00,0.43,0.07
09/01/2018 06:15,0.44,0.08
09/01/2018 06:30,0.43,0.07
09/01/2018 06:45,0.45,0.08
09/01/2018 07:00,0.46,0.11
09/01/2018 07:15,1.29,0.39
09/01/2018 07:30,1.31,0.36
09/01/2018 07:45,1.32,0.36
09/01/2018 08:00,1.16,0.3
09/01/2018 08:15,1.29,0.36
09/01/2018 08:30,1.35,0.36
09/01/2018 08:45,1.3,0.33
09/01/2018 09:00,0.55,0.1
09/01/2018 09:15,0.4,0.06
09/01/2018 09:30,0.3,0.01
09/01/2018 09:45,0.29,0.04
09/01/2018 10:00,0.29,0.04
09/01/2018 10:15,0.27,0.04
09/01/2018 10:30,0.26,0.02
09/01/2018 10:45,0.25,0.02
09/01/2018 11:00,0.23,0.02
09/01/2018 11:15,0.22,0.02
09/01/2018 11:30,0.23,0.02
09/01/2018 11:45,0.23,0.02
09/01/2018 12:00,0.43,0.1
09/01/2018 12:15,1.19,0.35
09/01/2018 12:30,1.11,0.31
09/01/2018 12:45,1.22,0.3
09/01/2018 13:00,1.17,0.27
09/01/2018 13:15,1.08,0.24
09/01/2018 13:30,1.29,0.35
09/01/2018 13:45,1.35,0.36
09/01/2018 14:00,1.26,0.32
09/01/2018 14:15,1.26,0.35
09/01/2018 14:30,1.22,0.32
09/01/2018 14:45,1.26,0.33
09/01/2018 15:00,1.29,0.35
09/01/2018 15:15,1.18,0.3
09/01/2018 15:30,0.93,0.23
09/01/2018 15:45,0.97,0.25
09/01/2018 16:00,1.32,0.35
09/01/2018 16:15,1.17,0.3
09/01/2018 16:30,0.59,0.08
09/01/2018 16:45,0.33,0.05
09/01/2018 17:00,0.99,0.31
09/01/2018 17:15,1.37,0.41
09/01/2018 17:30,1.27,0.37
09/01/2018 17:45,1.34,0.41
09/01/2018 18:00,1.37,0.41
09/01/2018 18:15,1.11,0.32
09/01/2018 18:30,1.36,0.37
09/01/2018 18:45,1.29,0.33
09/01/2018 19:00,1.25,0.31
09/01/2018 19:15,1.28,0.31
09/01/2018 19:30,1.29,0.3
09/01/2018 19:45,1.17,0.31
09/01/2018 20:00,1.2,0.27
09/01/2018 20:15,1.13,0.24
09/01/2018 20:30,1.24,0.26
09/01/2018 20:45,1.28,0.31
09/01/2018 21:00,1.07,0.25
09/01/2018 21:15,1.2,0.29
09/01/2018 21:30,1.06,0.23
09/01/2018 21:45,1.12,0.24
09/01/2018 22:00,1.1,0.23
09/01/2018 22:15,0.38,-0.02
09/01/2018 22:30,0.36,-0.03
09/01/2018 22:45,0.33,0.01
09/01/2018 23:00,0.32,0
09/01/2018 23:15,0.33,0
09/01/2018 23:30,0.35,0
09/01/2018 23:45,0.37,-0.01
10/01/2018 00:00,0.4,0
10/01/2018 00:15,0.48,0
10/01/2018 00:30,0.47,-0.02